Location: Carri�res
(48.9069°N, 2.1792°E)
Time: 12:52:11
(UTC+00:00)

Cosmos 2142 Rocket - Pass Details

Date: 17 January 2021
Orbit: 952 x 1005 km, 83.0° (Epoch: 25 February)

Event Time Altitude Azimuth Distance (km) Brightness Sun altitude
Rises 17:27:45 0° 352° (N) 3,675 7.4 -10.1°
Reaches altitude 10° 17:30:20 10° 356° (N) 2,717 6.7 -10.5°
Maximum altitude 17:36:29 62° 77° (ENE) 1,071 4.5 -11.4°
Drops below altitude 10° 17:42:32 10° 158° (SSE) 2,675 6.8 -12.4°
Sets 17:45:02 0° 162° (SSE) 3,614 7.5 -12.8°
